#timestamp,LO_Frequency,Hit,StdDev 
1592924415.7,286046997.6,N
1592924435.5,286046994.7,N
1592924455.4,286046997.8,N
1592924475.2,286046999.3,N
1592924495.0,286047000.5,N
1592924496.0,286047000.5,N
1592924515.8,286047001.5,N
1592924535.6,286047005.5,N
1592924555.5,286047006.6,N
1592924575.3,286047009.7,N
1592924595.1,286047011.7,N
1592924615.9,286047011.1,N
1592924635.7,286047012.6,N
1592924655.5,286047014.2,N
1592924675.4,286047018.7,N
1592924695.2,286047016.9,N
1592924715.1,286047014.9,N
1592924716.0,286047014.9,N
1592924735.8,286047012.1,N
1592924755.6,286047008.1,N
1592924775.5,286047005.4,N
1592924795.3,286047010.5,N
1592924815.2,286047011.0,N
1592924835.9,286047015.3,N
1592924855.7,286047014.5,N
1592924875.6,286047016.4,N
1592924895.4,286047014.7,N
1592924915.2,286047013.5,N
1592924935.1,286047012.8,N
1592924936.0,286047012.8,N
1592924955.8,286047018.8,N
1592924975.7,286047018.1,N
1592924995.5,286047019.4,Y
1592925015.3,286047009.7,P
1592925035.2,286047012.2,P
1592925055.9,286047013.6,P
1592925075.7,286047017.2,Y
1592925095.6,286047003.0,P
1592925115.4,286047003.5,N
1592925135.3,286047003.4,N
1592925155.1,286047005.4,N
1592925156.0,286047005.4,N
1592925175.8,286047005.4,N
1592925195.7,286047004.0,N
1592925215.5,286047001.7,N
1592925235.3,286047005.5,N
1592925255.2,286047004.7,N
1592925275.0,286047005.1,N
1592925275.9,286047005.1,N
1592925295.8,286047006.3,N
1592925315.6,286047008.3,Y
1592925335.4,286047005.5,P
1592925355.3,286047007.4,P
1592925375.1,286047008.2,P
1592925395.8,286047009.6,Y
1592925415.7,286047003.0,P
1592925435.5,286047005.6,P
1592925455.4,286047005.0,P
1592925475.2,286047000.1,N
1592925495.0,286046995.0,N
1592925495.9,286046995.0,N
1592925515.8,286046995.9,N
1592925535.6,286046999.3,N
1592925555.4,286047002.8,N
1592925575.3,286047002.9,N
1592925595.1,286047005.5,N
1592925615.9,286047006.7,N
1592925635.7,286047007.9,N
1592925655.5,286047008.5,N
1592925675.4,286047010.6,N
1592925695.2,286047008.5,N
1592925715.0,286047008.9,N
1592925715.9,286047008.9,N
1592925735.8,286047008.5,N
1592925755.6,286047006.2,N
1592925775.4,286047006.4,N
1592925795.3,286047007.1,N
1592925815.1,286047006.0,N
1592925835.9,286047004.1,N
1592925855.7,286046999.1,N
1592925875.5,286046998.7,N
1592925895.4,286046998.4,N
1592925915.2,286046987.3,N
1592925935.0,286046992.5,N
1592925935.9,286046992.5,N
1592925955.8,286046988.8,N
1592925975.6,286046988.4,N
1592925995.5,286046989.4,N
1592926015.3,286046994.7,N
1592926035.1,286046995.3,N
1592926055.9,286046999.5,N
1592926075.7,286047000.3,N
1592926095.5,286047002.3,N
1592926115.4,286047002.0,N
1592926135.2,286047004.4,N
1592926155.0,286047005.5,N
1592926156.0,286047005.5,N
1592926175.8,286047005.9,N
1592926195.6,286047005.4,N
1592926215.5,286047006.0,N
1592926235.3,286047002.1,N
1592926255.1,286046998.9,N
1592926275.9,286046997.7,N
1592926295.7,286047000.9,N
1592926315.5,286047000.7,N
1592926335.4,286047000.6,N
1592926355.2,286047002.2,N
1592926375.1,286047004.3,N
1592926376.0,286047004.3,N
1592926395.8,286047006.0,N
1592926415.6,286047006.1,N
1592926435.5,286047010.0,N
1592926455.3,286047012.0,N
1592926475.2,286047009.5,N
1592926495.9,286047011.6,N
1592926515.7,286047011.2,N
1592926535.6,286047013.6,N
1592926555.4,286047011.3,N
1592926575.2,286047011.1,N
1592926595.1,286047013.9,N
1592926596.0,286047013.9,Y
1592926615.8,286047006.4,P
1592926635.7,286047010.8,P
1592926655.5,286047009.3,P
1592926675.3,286047008.0,Y
1592926695.2,286047001.5,P
1592926715.0,286047003.6,N
1592926715.9,286047003.6,N
1592926735.7,286047003.6,N
1592926755.6,286046999.3,N
1592926775.4,286046996.7,N
1592926795.3,286046993.3,N
1592926815.1,286046994.5,N
1592926835.8,286046995.9,N
1592926855.7,286046992.2,N
1592926875.5,286046992.5,N
1592926895.3,286046986.3,N
1592926915.2,286046990.9,N
1592926935.0,286046991.3,N
1592926935.9,286046991.3,N
1592926955.8,286046988.5,N
1592926975.6,286046987.7,N
1592926995.4,286046984.9,N
1592927015.3,286046980.8,N
1592927035.1,286046985.0,N
1592927055.8,286046989.8,N
1592927075.7,286046991.4,N
1592927095.5,286046991.6,N
1592927115.4,286046990.4,N
1592927135.2,286046991.3,N
1592927155.0,286046984.0,N
1592927155.9,286046984.0,N
1592927175.8,286046984.0,N
1592927195.6,286046989.4,N
1592927215.5,286046991.5,N
1592927235.3,286046990.6,N
1592927255.1,286046992.9,N
1592927275.9,286046990.6,N
1592927295.7,286046986.6,N
1592927315.6,286046982.4,Y
1592927335.4,286046993.7,P
1592927355.2,286046998.0,N
1592927375.1,286046998.4,N
1592927376.0,286046998.4,N
1592927395.8,286047001.0,N
1592927415.6,286047002.3,N
1592927435.5,286047003.5,N
1592927455.3,286047006.2,N
1592927475.2,286047008.9,N
1592927495.9,286047011.2,N
1592927515.7,286047014.4,N
1592927535.6,286047016.1,N
1592927555.4,286047016.9,N
1592927575.2,286047018.1,N
1592927595.1,286047020.1,N
1592927596.0,286047020.1,N
1592927615.8,286047017.4,N
1592927635.7,286047017.5,N
1592927655.5,286047016.4,N
1592927675.3,286047016.6,N
1592927695.2,286047020.3,N
1592927715.0,286047019.8,N
1592927715.9,286047019.8,N
1592927735.8,286047019.6,N
1592927755.6,286047021.9,N
1592927775.4,286047022.8,N
1592927795.3,286047026.4,N
1592927815.1,286047028.3,N
1592927835.8,286047026.9,N
1592927855.7,286047027.6,N
1592927875.5,286047027.3,N
1592927895.4,286047027.1,N
1592927915.2,286047029.3,Y
1592927935.0,286047015.6,P
1592927935.9,286047015.6,P
1592927955.8,286047015.5,P
1592927975.6,286047014.6,Y
1592927995.5,286046998.5,P
